INTELSAT 11 (IS-11)

Last updated on Sat Feb 07 2026 00:02:47 GMT+0000 (Coordinated Universal Time)

1 32253U 07044B 26037.40814262 -.00000231 00000+0 00000+0 0 9990 2 32253 3.2250 80.3110 0006703 193.2812 350.7665 0.99053085 67154
UTC large
Height (km)
Speed (km/s)
/
Latitude / Longitude
Inclination (degrees)
Orbital Period (minutes)
Azimuth
Elevation
Range (km)
Doppler Factor

Next 0 passes for location: London (51.5072 / 0.1276)

Sorry there are no passes over London.